• In Moldova, Republic
  • List of Countries
  • For 7 days
  • Water Temperature
  • Satellite Maps
  • Weather Map
  • Weather Widgets
  • user-avatar
    Login

    Hourly Weather Shusha

    Today, 29 April, Saturday

    Time Temperature Precipitation Wind Pressure Humidity
    00:00 +5°C° 0 mm 1 mps 662 mmHg 92%
    01:00 +5°C° 0 mm 1 mps 661 mmHg 92%
    02:00 +4°C° 0 mm 1 mps 661 mmHg 92%
    03:00 +3°C° 0 mm 0 mps 660 mmHg 94%
    04:00 +4°C° 0 mm 0 mps 660 mmHg 91%
    05:00 +5°C° 0 mm 0 mps 661 mmHg 88%
    06:00 +6°C° 0 mm 0 mps 661 mmHg 86%
    07:00 +9°C° 0 mm 1 mps 661 mmHg 76%
    08:00 +12°C° 0 mm 1 mps 662 mmHg 67%
    09:00 +14°C° 0 mm 2 mps 662 mmHg 57%
    10:00 +15°C° 0.1 mm 2 mps 662 mmHg 55%
    11:00 +16°C° 0.1 mm 2 mps 662 mmHg 53%
    12:00 +17°C° 0.1 mm 2 mps 662 mmHg 50%
    13:00 +17°C° 0.2 mm 2 mps 662 mmHg 51%
    14:00 +17°C° 0.2 mm 2 mps 661 mmHg 51%
    15:00 +17°C° 0.2 mm 3 mps 661 mmHg 52%
    16:00 +16°C° 0.2 mm 2 mps 661 mmHg 57%
    17:00 +15°C° 0.2 mm 2 mps 661 mmHg 63%
    18:00 +14°C° 0.2 mm 2 mps 660 mmHg 68%
    19:00 +12°C° 0.2 mm 1 mps 660 mmHg 75%
    20:00 +10°C° 0.2 mm 1 mps 659 mmHg 82%
    21:00 +7°C° 0.2 mm 1 mps 659 mmHg 89%
    22:00 +7°C° 0 mm 1 mps 659 mmHg 90%
    23:00 +7°C° 0 mm 1 mps 659 mmHg 90%

    Tomorrow, 30 April, Sunday

    Time Temperature Precipitation Wind Pressure Humidity
    00:00 +6°C° 0 mm 1 mps 659 mmHg 91%
    01:00 +6°C° 0 mm 1 mps 658 mmHg 91%
    02:00 +6°C° 0 mm 1 mps 658 mmHg 91%
    03:00 +6°C° 0 mm 1 mps 658 mmHg 91%
    04:00 +7°C° 0 mm 1 mps 659 mmHg 88%
    05:00 +8°C° 0 mm 1 mps 659 mmHg 85%
    06:00 +9°C° 0 mm 1 mps 660 mmHg 82%
    07:00 +11°C° 0 mm 1 mps 660 mmHg 72%
    08:00 +14°C° 0 mm 1 mps 661 mmHg 61%
    09:00 +16°C° 0 mm 2 mps 662 mmHg 51%
    10:00 +17°C° 0.1 mm 2 mps 662 mmHg 48%
    11:00 +19°C° 0.1 mm 2 mps 662 mmHg 45%
    12:00 +20°C° 0.1 mm 3 mps 662 mmHg 41%
    13:00 +20°C° 0.1 mm 2 mps 661 mmHg 41%
    14:00 +20°C° 0.1 mm 2 mps 661 mmHg 40%
    15:00 +21°C° 0.1 mm 2 mps 661 mmHg 40%
    16:00 +19°C° 0 mm 2 mps 660 mmHg 47%
    17:00 +19°C° 0 mm 1 mps 660 mmHg 54%
    18:00 +18°C° 0 mm 1 mps 660 mmHg 61%
    19:00 +14°C° 0.2 mm 1 mps 660 mmHg 67%
    20:00 +12°C° 0.2 mm 1 mps 659 mmHg 74%
    21:00 +10°C° 0.2 mm 1 mps 659 mmHg 80%
    22:00 +10°C° 0 mm 1 mps 659 mmHg 79%
    23:00 +10°C° 0 mm 1 mps 659 mmHg 78%

    Day after tomorrow, 1 May, Monday

    Time Temperature Precipitation Wind Pressure Humidity
    00:00 +10°C° 0 mm 1 mps 659 mmHg 77%
    01:00 +9°C° 0 mm 2 mps 659 mmHg 75%
    02:00 +8°C° 0 mm 2 mps 659 mmHg 74%
    03:00 +8°C° 0 mm 2 mps 659 mmHg 72%
    04:00 +9°C° 0 mm 2 mps 659 mmHg 69%
    05:00 +9°C° 0 mm 2 mps 659 mmHg 66%
    06:00 +10°C° 0 mm 2 mps 660 mmHg 63%
    07:00 +14°C° 0 mm 2 mps 661 mmHg 54%
    08:00 +16°C° 0 mm 2 mps 661 mmHg 46%
    09:00 +19°C° 0 mm 2 mps 662 mmHg 37%
    10:00 +20°C° 0 mm 2 mps 662 mmHg 35%
    11:00 +21°C° 0 mm 2 mps 662 mmHg 33%
    12:00 +22°C° 0 mm 3 mps 662 mmHg 31%
    13:00 +24°C° 0 mm 3 mps 662 mmHg 32%
    14:00 +24°C° 0 mm 2 mps 662 mmHg 32%
    15:00 +24°C° 0 mm 2 mps 662 mmHg 32%
    16:00 +21°C° 0 mm 2 mps 661 mmHg 40%
    17:00 +20°C° 0 mm 2 mps 661 mmHg 47%
    18:00 +19°C° 0 mm 1 mps 661 mmHg 54%
    19:00 +16°C° 0 mm 1 mps 660 mmHg 62%
    20:00 +14°C° 0 mm 1 mps 660 mmHg 69%
    21:00 +12°C° 0 mm 1 mps 660 mmHg 77%
    22:00 +11°C° 0 mm 1 mps 660 mmHg 76%
    23:00 +11°C° 0 mm 1 mps 660 mmHg 76%

    2 May, Tuesday

    Time Temperature Precipitation Wind Pressure Humidity
    00:00 +11°C° 0 mm 1 mps 659 mmHg 76%
    01:00 +10°C° 0 mm 2 mps 659 mmHg 72%
    02:00 +10°C° 0 mm 2 mps 659 mmHg 69%
    03:00 +10°C° 0 mm 2 mps 659 mmHg 65%
    04:00 +11°C° 0 mm 1 mps 659 mmHg 64%
    05:00 +12°C° 0 mm 1 mps 660 mmHg 64%
    06:00 +12°C° 0 mm 1 mps 660 mmHg 63%
    07:00 +15°C° 0 mm 1 mps 660 mmHg 55%
    08:00 +18°C° 0 mm 1 mps 661 mmHg 48%
    09:00 +19°C° 0 mm 2 mps 661 mmHg 41%
    10:00 +20°C° 0 mm 2 mps 661 mmHg 39%
    11:00 +20°C° 0 mm 2 mps 661 mmHg 38%
    12:00 +21°C° 0 mm 2 mps 661 mmHg 37%
    13:00 +21°C° 0.1 mm 2 mps 661 mmHg 38%
    14:00 +21°C° 0.1 mm 2 mps 661 mmHg 39%
    15:00 +23°C° 0.1 mm 2 mps 660 mmHg 40%
    16:00 +20°C° 0.2 mm 2 mps 660 mmHg 46%
    17:00 +19°C° 0.2 mm 2 mps 660 mmHg 53%
    18:00 +19°C° 0.2 mm 1 mps 659 mmHg 59%
    19:00 +16°C° 0.2 mm 1 mps 659 mmHg 64%
    20:00 +14°C° 0.2 mm 1 mps 659 mmHg 69%
    21:00 +12°C° 0.2 mm 1 mps 659 mmHg 74%
    22:00 +12°C° 0 mm 1 mps 659 mmHg 74%
    23:00 +12°C° 0 mm 1 mps 658 mmHg 74%

    3 May, Wednesday

    Time Temperature Precipitation Wind Pressure Humidity
    00:00 +12°C° 0 mm 1 mps 658 mmHg 73%
    01:00 +12°C° 0 mm 1 mps 658 mmHg 74%
    02:00 +11°C° 0 mm 1 mps 657 mmHg 75%
    03:00 +11°C° 0 mm 1 mps 657 mmHg 75%
    04:00 +11°C° 0 mm 1 mps 657 mmHg 74%
    05:00 +12°C° 0 mm 1 mps 658 mmHg 73%
    06:00 +13°C° 0 mm 1 mps 658 mmHg 72%
    07:00 +14°C° 0 mm 1 mps 658 mmHg 66%
    08:00 +16°C° 0 mm 1 mps 658 mmHg 60%
    09:00 +19°C° 0 mm 1 mps 659 mmHg 53%
    10:00 +20°C° 0.2 mm 1 mps 659 mmHg 50%
    11:00 +20°C° 0.2 mm 2 mps 659 mmHg 46%
    12:00 +21°C° 0.2 mm 2 mps 659 mmHg 42%
    13:00 +21°C° 0.8 mm 2 mps 658 mmHg 43%
    14:00 +21°C° 0.8 mm 2 mps 658 mmHg 44%
    15:00 +21°C° 0.8 mm 2 mps 658 mmHg 45%
    16:00 +20°C° 0.2 mm 2 mps 658 mmHg 51%
    17:00 +20°C° 0.2 mm 1 mps 657 mmHg 56%
    18:00 +19°C° 0.2 mm 1 mps 657 mmHg 62%
    19:00 +16°C° 0.1 mm 1 mps 657 mmHg 66%
    20:00 +15°C° 0.1 mm 1 mps 657 mmHg 70%
    21:00 +13°C° 0.1 mm 1 mps 657 mmHg 75%
    22:00 +13°C° 0 mm 1 mps 657 mmHg 74%
    23:00 +13°C° 0 mm 2 mps 657 mmHg 74%

    4 May, Thursday

    Time Temperature Precipitation Wind Pressure Humidity
    00:00 +12°C° 0 mm 2 mps 657 mmHg 74%
    01:00 +12°C° 0 mm 2 mps 657 mmHg 74%
    02:00 +10°C° 0 mm 2 mps 656 mmHg 74%
    03:00 +10°C° 0 mm 2 mps 656 mmHg 74%
    04:00 +10°C° 0 mm 2 mps 656 mmHg 71%
    05:00 +12°C° 0 mm 2 mps 657 mmHg 68%
    06:00 +12°C° 0 mm 2 mps 657 mmHg 65%
    07:00 +14°C° 0 mm 2 mps 658 mmHg 57%
    08:00 +17°C° 0 mm 2 mps 658 mmHg 49%
    09:00 +19°C° 0 mm 2 mps 659 mmHg 41%
    10:00 +20°C° 0.1 mm 2 mps 659 mmHg 40%
    11:00 +21°C° 0.1 mm 2 mps 658 mmHg 39%
    12:00 +22°C° 0.1 mm 3 mps 658 mmHg 38%
    13:00 +22°C° 0.4 mm 3 mps 658 mmHg 39%
    14:00 +23°C° 0.4 mm 2 mps 658 mmHg 39%
    15:00 +23°C° 0.4 mm 2 mps 658 mmHg 40%
    16:00 +21°C° 0.2 mm 2 mps 657 mmHg 46%
    17:00 +19°C° 0.2 mm 2 mps 657 mmHg 53%
    18:00 +19°C° 0.2 mm 1 mps 657 mmHg 59%
    19:00 +16°C° 0.3 mm 1 mps 657 mmHg 66%
    20:00 +14°C° 0.3 mm 1 mps 657 mmHg 73%
    21:00 +12°C° 0.3 mm 1 mps 657 mmHg 79%
    22:00 +11°C° 0.3 mm 1 mps 657 mmHg 80%
    23:00 +11°C° 0.3 mm 1 mps 657 mmHg 81%
    Show more